Starlink 5024

operational
NORAD ID: 53901 Int'l Des: 2022-119 Owner: SPXS Country: US Constellation: starlink
LEOCIRCULAR

关于 Starlink 5024

正在加载描述...

实时位置

正在加载3D地球...

即将过境

高度历史

Altitude vs Time

uPlot chart will show altitude changes over time

两行轨道根数

1 53901U 22119R 26034.58335648 .00172242 00000-0 84918-3 0 9991
2 53901 53.2062 54.0550 0001230 51.2244 358.2468 15.81121535 5958
Epoch: Feb 3, 2026 • Age: 14 hours

当前状态

高度 340.9 km
速度 7.70 km/s
星下点 -40.54°S, 69.73°E
发射日期 Sep 24, 2022
运行时间 3.3 years
类型 internet

技术详情

分类 Payload
质量 305.00 kg
干质量 290.00 kg
总质量 305.00 kg
长度 0.20 m
直径 2.80 m
跨度 9.00 m
形状 Box + pan
制造商 SPXS
平台类型 Starlink
阶段状态 In Orbit
所有者/国家 SPXS/US

大型星座

Loading constellations...